Home > Time Zones > World Clock > Weather > U.S.A. > Knox > Past weeks

Flag for U.S.A. Weather past 2 weeks in Knox, Indiana, U.S.A.

Now
28 °F

Light snow. Ice fog.


Feels Like: 19 °F
Forecast: 21 / 35 °F
Wind: 10 mph from Northeast

Location: Porter County Municipal Airport

Current Time: Jan 25, 2015 at 4:37:36 PM

Latest Report: Jan 25, 2015 at 3:56 PM


Visibility: 1 mi

Pressure: 29.86 "Hg

Humidity: 93%

Dew point: 26 °F

Location of KnoxLocation

Historic Weather in Knox — Graph

°F

Knox temperature yesterday

Maximum temperature yesterday: 42 °F (at 1:56 PM)
Minimum temperature yesterday: 25 °F (at 12:56 AM)
Average temperature yesterday: 33 °F

Past Weeks' High & Low Weather Summary

 TemperatureHumidityPressure
High42 °F (Jan 24, 1:56 PM)100% (Jan 14, 8:04 AM)30.76 "Hg (Jan 14, 8:04 AM)
Low-5 °F (Jan 14, 4:56 AM)60% (Jan 10, 9:56 PM)29.65 "Hg (Jan 24, 1:56 PM)
Average26 °F82%30.13 "Hg
* Reported Jan 10 2:56 PM — Jan 25 2:56 PM, Knox, Weather by CustomWeather, © 2014

Note: Actual official high and low records may vary slightly from our data, if they occured in-between our weather recording intervals... More about our weather records

Advertising

Knox weather history for previous 24 hours

 ConditionsComfort  
Time TempWeatherWind HumidityBarometerVisibility
2:56 PM
Jan 25
29 °FLight snow. Ice fog.15 mph89%29.82 "Hg1 mi
2:03 PM29 °FLight snow. Ice fog.14 mph93%29.77 "Hg1 mi
1:56 PM29 °FLight snow. Ice fog.15 mph93%29.79 "Hg1 mi
12:56 PM31 °FSnow. Ice fog.14 mph92%29.78 "Hg1 mi
11:56 AM32 °FLight snow. Ice fog.15 mph96%29.77 "Hg1 mi
10:56 AM33 °FLight snow. Fog.13 mph96%29.76 "Hg1 mi
9:56 AM33 °FLight snow. Fog.13 mph96%29.76 "Hg2 mi
8:56 AM34 °FLight rain. Fog.15 mph92%29.75 "Hg2 mi
7:56 AM34 °FLight rain. Fog.9 mph92%29.73 "Hg2 mi
6:56 AM34 °FFog.7 mph92%29.72 "Hg4 mi
5:56 AM33 °FFog.8 mph92%29.70 "Hg4 mi
4:56 AM33 °FFog.6 mph96%29.70 "Hg1 mi
3:56 AM33 °FFog.5 mph96%29.69 "Hg1 mi
2:56 AM32 °FIce fog.No wind100%29.69 "Hg1 mi
1:56 AM31 °FIce fog.3 mph100%29.70 "Hg2 mi
12:56 AM31 °FIce fog.No wind100%29.70 "Hg2 mi
11:56 PM
Jan 24
30 °FIce fog.5 mph96%29.70 "Hg0 mi
10:56 PM32 °FIce fog.No wind92%29.70 "Hg1 mi
9:56 PM33 °FFog.3 mph96%29.71 "Hg5 mi
8:56 PM33 °FFog.6 mph96%29.71 "Hg6 mi
7:56 PM35 °FPassing clouds.7 mph92%29.69 "Hg7 mi
6:56 PM35 °FPassing clouds.7 mph88%29.71 "Hg9 mi
5:56 PM38 °FMostly cloudy.7 mph83%29.71 "Hg10 mi
4:56 PM39 °FOvercast.7 mph76%29.69 "Hg10 mi
Weather by CustomWeather, © 2014

See weather overviewHow to use our weather pages